Hourly Data Report for February 25, 2021

KUGAARUK CLIMATE
NUNAVUT
Current Station Operator: ECCC - MSC

68°32'15.060" N
89°47'47.020" W
15.80 m
2303094
71407
NBB

Download Data

Hourly Data (February 2021)
Hourly Data Report for February 25, 2021
TIME
LST
Temp Definition
°C
Dew Point Definition
°C
Rel Hum Definition
%
Precip. Amount Definition
mm

Wind Dir Definition
10's deg

Wind Spd Definition
km/h
Visibility Definition
km
Stn Press Definition
kPa
Hmdx Definition


Wind Chill Definition


Weather Definition


00:00 -37.4 -41.6 65 0.0 22 31   100.21   -56 LegendNANA
01:00 -36.3 -40.5 65 0.0 21 37   100.19   -55 LegendNANA
02:00 -35.6 -40.1 63 0.0 22 22   100.18   -51 LegendNANA
03:00 -38.3 -42.6 64 0.0 3 5   100.20   -45 LegendNANA
04:00 -40.9 -44.8 66 0.0 4 8   100.18   -51 LegendNANA
05:00 -39.9 -43.8 67 0.0 4 9   100.19   -50 LegendNANA
06:00 -37.7 -41.4 68 0.0 4 10   100.14   -48 LegendNANA
07:00 -33.7 -37.3 70 0.0 11 12   100.12   -45 LegendNANA
08:00 -35.2 -39.3 66 0.2 36 7   100.17   -43 LegendNANA
09:00 -32.2 -36.3 66 0.5 9 4   100.18   -37 LegendNANA
10:00 -32.1 -36.0 68 0.0 8 9   100.15   -41 LegendNANA
11:00 -30.9 -34.8 68 0.0 13 20   100.15   -44 LegendNANA
12:00 -31.2 -35.3 67 0.0 14 27   100.17   -46 LegendNANA
13:00 -32.4 -36.7 66 0.0 15 28   100.19   -48 LegendNANA
14:00 -32.7 -36.9 66 0.0 15 25   100.23   -48 LegendNANA
15:00 -32.8 -36.9 66 0.0 12 6   100.28   -40 LegendNANA
16:00 -33.1 -37.0 67 0.0 4 12   100.29   -44 LegendNANA
17:00 -33.4 -37.5 67 0.0 7 18   100.36   -47 LegendNANA
18:00 -35.8 -39.7 67 0.0 5 20   100.38   -50 LegendNANA
19:00 -35.9 -39.6 69 0.0 6 17   100.38   -49 LegendNANA
20:00 -38.0 -41.6 69 0.0 5 21   100.38   -54 LegendNANA
21:00 -38.6 -42.2 69 0.0 6 17   100.40   -53 LegendNANA
22:00 -39.8 -43.3 69 0.0 6 18   100.36   -55 LegendNANA
23:00 -40.0 -43.4 69 0.0 7 17   100.36   -55 LegendNANA

Notes on Data Quality.

Legend

  • E = Estimated
  • M = Missing
  • NA = Not Available*
  • [empty] = Indicates an unobserved value
Date modified: